QPF
0.00 0.00 0.00 0.01 0.01 0.01 0.01 0.01 0.02 0.01 0.00 0.00 0.00 0.00 0.01 0.01 0.01 0.01 0.01 0.01 0.01 0.02 0.02 0.02 0.01 0.01 0.01 0.01 0.00 0.01 0.01 0.01 0.01 0.01 0.01 0.01 0.01 0.01 0.01 0.01 0.01 0.01 0.01
0.00 0.00 0.00 0.01 0.01 0.01 0.01 0.01 0.01 0.01 0.01 0.00 0.00 0.00 0.01 0.01 0.01 0.01 0.01 0.01 0.02 0.02 0.01 0.01 0.01 0.00 0.00 0.00 0.00 0.00 0.00 0.00 0.00 0.00 0.01 0.00 0.01 0.01 0.01 0.00 0.00 0.01 0.01
0.00 0.00 0.00 0.01 0.01 0.01 0.01 0.01 0.00 0.01 0.01 0.01 0.01 0.01 0.01 0.01 0.01 0.01 0.01 0.01 0.02 0.01 0.01 0.00 0.00 0.00 0.00 0.00 0.00 0.00 0.00 0.00 0.00 0.01 0.01 0.01 0.00 0.01 0.00 0.00 0.00 0.00 0.00
0.00 0.00 0.00 0.00 0.00 0.00 0.00 0.00 0.00 0.01 0.01 0.02 0.01 0.00 0.01 0.01 0.01 0.01 0.01 0.01 0.01 0.01 0.00 0.00 0.00 0.00 0.00 0.00 0.00 0.00 0.00 0.00 0.00 0.00 0.01 0.00 0.00 0.00 0.00 0.00 0.00 0.00 0.00
0.00 0.00 0.00 0.00 0.00 0.00 0.00 0.00 0.00 0.01 0.01 0.01 0.01 0.01 0.01 0.01 0.01 0.01 0.00 0.01 0.01 0.01 0.00 0.00 0.00 0.00 0.00 0.00 0.00 0.00 0.00 0.00 0.00 0.00 0.00 0.00 0.00 0.00 0.00 0.00 0.00 0.00 0.00
0.00 0.00 0.00 0.00 0.00 0.00 0.01 0.01 0.00 0.01 0.01 0.01 0.01 0.00 0.00 0.01 0.01 0.01 0.00 0.00 0.00 0.01 0.01 0.00 0.00 0.00 0.00 0.00 0.00 0.00 0.00 0.00 0.00 0.00 0.00 0.00 0.00 0.00 0.00 0.00 0.00 0.00 0.00
0.00 0.01 0.00 0.00 0.00 0.00 0.01 0.01 0.01 0.01 0.01 0.00 0.00 0.00 0.00 0.00 0.01 0.00 0.00 0.00 0.00 0.00 0.00 0.00 0.00 0.00 0.00 0.00 0.00 0.00 0.00 0.00 0.00 0.00 0.00 0.00 0.00 0.00 0.00 0.00 0.00 0.00 0.00
0.00 0.00 0.00 0.00 0.00 0.00 0.00 0.00 0.01 0.01 0.01 0.01 0.00 0.00 0.00 0.00 0.00 0.00 0.00 0.00 0.00 0.00 0.00 0.00 0.00 0.00 0.00 0.00 0.00 0.00 0.00 0.00 0.00 0.00 0.00 0.00 0.00 0.00 0.00 0.00 0.00 0.00 0.00
0.00 0.00 0.00 0.00 0.00 0.00 0.00 0.00 0.00 0.01 0.01 0.01 0.00 0.00 0.00 0.00 0.00 0.00 0.00 0.00 0.00 0.00 0.00 0.00 0.00 0.00 0.00 0.00 0.00 0.00 0.00 0.00 0.00 0.00 0.00 0.00 0.00 0.00 0.00 0.00 0.00 0.00 0.00
0.00 0.00 0.00 0.00 0.00 0.00 0.00 0.00 0.00 0.00 0.00 0.00 0.00 0.00 0.00 0.00 0.00 0.00 0.00 0.00 0.00 0.00 0.00 0.00 0.00 0.00 0.00 0.00 0.00 0.00 0.00 0.00 0.00 0.00 0.00 0.00 0.00 0.00 0.00 0.00 0.00 0.00 0.00
0.00 0.00 0.00 0.00 0.00 0.01 0.01 0.00 0.00 0.00 0.00 0.00 0.00 0.00 0.00 0.00 0.00 0.00 0.00 0.00 0.00 0.00 0.00 0.00 0.00 0.00 0.00 0.00 0.00 0.00 0.00 0.00 0.00 0.00 0.00 0.00 0.00 0.00 0.00 0.00 0.00 0.00 0.00
0.00 0.00 0.00 0.00 0.00 0.01 0.00 0.00 0.00 0.00 0.00 0.00 0.01 0.00 0.00 0.00 0.01 0.00 0.00 0.00 0.00 0.00 0.00 0.00 0.00 0.00 0.00 0.00 0.00 0.00 0.00 0.00 0.00 0.00 0.00 0.00 0.00 0.00 0.00 0.00 0.00 0.00 0.00
0.00 0.00 0.00 0.00 0.00 0.00 0.00 0.00 0.00 0.00 0.01 0.01 0.01 0.01 0.01 0.01 0.01 0.01 0.00 0.00 0.00 0.00 0.00 0.00 0.00 0.00 0.00 0.00 0.00 0.00 0.00 0.00 0.00 0.00 0.00 0.00 0.00 0.00 0.00 0.00 0.00 0.00 0.00
0.00 0.00 0.00 0.00 0.00 0.00 0.00 0.00 0.00 0.00 0.00 0.00 0.00 0.01 0.01 0.01 0.01 0.01 0.01 0.00 0.00 0.00 0.00 0.00 0.00 0.00 0.00 0.00 0.00 0.00 0.00 0.00 0.00 0.00 0.00 0.00 0.00 0.00 0.00 0.00 0.00 0.00 0.00
0.00 0.00 0.00 0.00 0.00 0.00 0.00 0.00 0.00 0.00 0.00 0.00 0.00 0.00 0.00 0.00 0.00 0.00 0.00 0.00 0.00 0.00 0.00 0.00 0.00 0.00 0.00 0.00 0.00 0.00 0.00 0.00 0.00 0.00 0.00 0.00 0.00 0.00 0.00 0.00 0.00 0.00 0.00
0.00 0.00 0.00 0.00 0.00 0.00 0.00 0.00 0.00 0.00 0.00 0.00 0.00 0.00 0.00 0.00 0.00 0.00 0.00 0.00 0.00 0.00 0.00 0.00 0.00 0.00 0.00 0.00 0.00 0.00 0.00 0.00 0.00 0.00 0.00 0.00 0.00 0.00 0.00 0.00 0.00 0.01 0.01
0.00 0.00 0.00 0.00 0.00 0.00 0.00 0.00 0.00 0.00 0.00 0.00 0.00 0.00 0.00 0.00 0.00 0.00 0.00 0.00 0.00 0.00 0.00 0.00 0.00 0.00 0.00 0.00 0.00 0.00 0.00 0.00 0.00 0.00 0.00 0.00 0.00 0.00 0.00 0.00 0.00 0.00 0.00
0.00 0.00 0.00 0.00 0.00 0.00 0.00 0.00 0.00 0.00 0.00 0.00 0.00 0.00 0.00 0.00 0.00 0.00 0.00 0.00 0.00 0.00 0.00 0.00 0.00 0.00 0.00 0.00 0.00 0.00 0.00 0.00 0.00 0.00 0.00 0.00 0.00 0.00 0.00 0.00 0.00 0.00 0.00
0.00 0.00 0.00 0.00 0.00 0.00 0.00 0.00 0.00 0.00 0.00 0.00 0.00 0.00 0.00 0.00 0.00 0.00 0.00 0.00 0.00 0.00 0.00 0.00 0.00 0.00 0.00 0.00 0.00 0.00 0.00 0.00 0.00 0.00 0.00 0.00 0.00 0.00 0.00 0.00 0.00 0.00 0.00
0.00 0.00 0.00 0.00 0.00 0.00 0.00 0.00 0.00 0.00 0.00 0.00 0.00 0.00 0.00 0.00 0.00 0.00 0.01 0.01 0.00 0.00 0.00 0.00 0.00 0.00 0.00 0.00 0.00 0.00 0.00 0.00 0.00 0.00 0.00 0.00 0.00 0.00 0.00 0.00 0.00 0.00 0.00
0.01 0.01 0.00 0.00 0.00 0.00 0.00 0.00 0.00 0.00 0.00 0.00 0.00 0.00 0.00 0.00 0.00 0.00 0.00 0.00 0.00 0.00 0.00 0.00 0.00 0.01 0.00 0.00 0.01 0.00 0.00 0.00 0.00 0.00 0.00 0.00 0.00 0.00 0.00 0.00 0.00 0.00 0.00
0.00 0.01 0.01 0.00 0.00 0.00 0.00 0.00 0.00 0.00 0.00 0.00 0.00 0.00 0.00 0.00 0.00 0.00 0.00 0.00 0.00 0.00 0.01 0.01 0.01 0.01 0.01 0.01 0.01 0.01 0.01 0.00 0.00 0.00 0.00 0.00 0.00 0.00 0.00 0.00 0.00 0.00 0.00
0.00 0.00 0.01 0.01 0.00 0.00 0.00 0.00 0.00 0.00 0.00 0.00 0.00 0.00 0.00 0.00 0.00 0.00 0.00 0.00 0.01 0.01 0.01 0.01 0.01 0.01 0.01 0.01 0.01 0.02 0.01 0.01 0.00 0.00 0.00 0.00 0.00 0.00 0.00 0.00 0.00 0.00 0.00
0.00 0.00 0.00 0.01 0.01 0.00 0.00 0.00 0.00 0.00 0.00 0.00 0.00 0.00 0.00 0.00 0.00 0.00 0.00 0.00 0.01 0.01 0.01 0.01 0.01 0.01 0.01 0.01 0.01 0.01 0.01 0.01 0.01 0.01 0.00 0.00 0.00 0.00 0.00 0.00 0.00 0.00 0.00
0.00 0.00 0.00 0.00 0.01 0.01 0.01 0.00 0.00 0.00 0.00 0.00 0.00 0.00 0.00 0.00 0.00 0.00 0.00 0.00 0.01 0.01 0.01 0.01 0.01 0.01 0.02 0.02 0.01 0.01 0.01 0.02 0.02 0.02 0.01 0.00 0.00 0.00 0.00 0.00 0.00 0.00 0.00
0.00 0.00 0.00 0.00 0.00 0.01 0.01 0.01 0.00 0.00 0.00 0.00 0.00 0.00 0.00 0.00 0.00 0.00 0.00 0.00 0.00 0.01 0.01 0.01 0.01 0.01 0.01 0.01 0.01 0.02 0.02 0.02 0.02 0.02 0.02 0.01 0.00 0.00 0.00 0.00 0.00 0.00 0.00
MSLP
1015.98 1016.10 1016.31 1016.61 1016.99 1017.40 1017.80 1018.14 1018.40 1018.57 1018.67 1018.75 1018.84 1018.98 1019.16 1019.39 1019.64 1019.87 1020.07 1020.21 1020.29 1020.34 1020.38 1020.42 1020.50 1020.61 1020.75 1020.90 1021.04 1021.16 1021.24 1021.30 1021.33 1021.36 1021.40 1021.45 1021.52 1021.59 1021.65 1021.70 1021.71 1021.70 1021.68
1015.86 1016.08 1016.38 1016.76 1017.18 1017.61 1017.99 1018.29 1018.50 1018.62 1018.71 1018.80 1018.93 1019.12 1019.39 1019.70 1020.01 1020.30 1020.51 1020.66 1020.73 1020.76 1020.77 1020.80 1020.87 1020.98 1021.11 1021.26 1021.39 1021.50 1021.57 1021.61 1021.64 1021.67 1021.72 1021.79 1021.88 1021.97 1022.05 1022.10 1022.11 1022.10 1022.06
1015.76 1016.06 1016.44 1016.88 1017.34 1017.78 1018.15 1018.42 1018.60 1018.71 1018.79 1018.90 1019.07 1019.31 1019.63 1019.99 1020.35 1020.66 1020.88 1021.02 1021.08 1021.10 1021.10 1021.13 1021.19 1021.29 1021.41 1021.54 1021.65 1021.73 1021.78 1021.80 1021.83 1021.87 1021.95 1022.05 1022.18 1022.30 1022.40 1022.47 1022.49 1022.47 1022.44
1015.66 1016.03 1016.47 1016.96 1017.46 1017.92 1018.30 1018.57 1018.75 1018.86 1018.95 1019.07 1019.27 1019.54 1019.89 1020.26 1020.63 1020.94 1021.16 1021.30 1021.36 1021.38 1021.40 1021.43 1021.50 1021.59 1021.70 1021.80 1021.87 1021.91 1021.93 1021.94 1021.97 1022.03 1022.14 1022.28 1022.45 1022.61 1022.73 1022.82 1022.85 1022.84 1022.81
1015.57 1015.98 1016.48 1017.02 1017.56 1018.05 1018.45 1018.74 1018.93 1019.05 1019.16 1019.30 1019.51 1019.79 1020.14 1020.50 1020.85 1021.15 1021.36 1021.50 1021.58 1021.63 1021.67 1021.74 1021.82 1021.93 1022.02 1022.09 1022.12 1022.12 1022.11 1022.10 1022.12 1022.20 1022.33 1022.51 1022.71 1022.90 1023.06 1023.15 1023.19 1023.19 1023.17
1015.49 1015.94 1016.47 1017.05 1017.63 1018.15 1018.58 1018.90 1019.12 1019.27 1019.40 1019.56 1019.77 1020.05 1020.37 1020.70 1021.02 1021.30 1021.51 1021.66 1021.77 1021.86 1021.96 1022.08 1022.20 1022.32 1022.41 1022.45 1022.44 1022.40 1022.34 1022.30 1022.32 1022.40 1022.56 1022.76 1022.98 1023.19 1023.36 1023.46 1023.51 1023.51 1023.50
1015.45 1015.91 1016.46 1017.07 1017.67 1018.22 1018.67 1019.03 1019.28 1019.47 1019.63 1019.80 1020.01 1020.27 1020.57 1020.87 1021.16 1021.41 1021.62 1021.79 1021.94 1022.10 1022.26 1022.44 1022.61 1022.75 1022.84 1022.86 1022.82 1022.73 1022.63 1022.57 1022.57 1022.66 1022.82 1023.03 1023.26 1023.47 1023.63 1023.73 1023.77 1023.78 1023.77
1015.46 1015.92 1016.47 1017.07 1017.68 1018.24 1018.71 1019.09 1019.38 1019.59 1019.78 1019.98 1020.20 1020.46 1020.73 1021.00 1021.27 1021.50 1021.71 1021.91 1022.11 1022.32 1022.55 1022.79 1023.00 1023.17 1023.26 1023.26 1023.19 1023.07 1022.94 1022.86 1022.84 1022.92 1023.08 1023.29 1023.51 1023.71 1023.86 1023.94 1023.97 1023.97 1023.97
1015.53 1015.97 1016.49 1017.07 1017.65 1018.20 1018.67 1019.06 1019.37 1019.62 1019.84 1020.07 1020.31 1020.57 1020.83 1021.10 1021.35 1021.58 1021.79 1022.01 1022.25 1022.50 1022.78 1023.06 1023.30 1023.48 1023.57 1023.56 1023.47 1023.33 1023.19 1023.09 1023.07 1023.14 1023.29 1023.50 1023.70 1023.88 1024.01 1024.07 1024.09 1024.08 1024.10
1015.63 1016.03 1016.52 1017.05 1017.59 1018.10 1018.55 1018.93 1019.25 1019.52 1019.78 1020.04 1020.31 1020.60 1020.88 1021.15 1021.40 1021.63 1021.85 1022.08 1022.33 1022.60 1022.90 1023.19 1023.44 1023.62 1023.71 1023.69 1023.60 1023.45 1023.31 1023.22 1023.20 1023.27 1023.42 1023.61 1023.81 1023.97 1024.07 1024.12 1024.13 1024.12 1024.14
1015.72 1016.09 1016.52 1017.00 1017.48 1017.94 1018.35 1018.71 1019.02 1019.31 1019.60 1019.90 1020.22 1020.54 1020.85 1021.14 1021.41 1021.64 1021.86 1022.08 1022.33 1022.59 1022.87 1023.15 1023.38 1023.55 1023.63 1023.62 1023.53 1023.40 1023.27 1023.20 1023.20 1023.28 1023.43 1023.62 1023.81 1023.96 1024.05 1024.09 1024.09 1024.09 1024.12
1015.75 1016.09 1016.49 1016.91 1017.34 1017.74 1018.10 1018.42 1018.72 1019.02 1019.33 1019.66 1020.02 1020.38 1020.74 1021.06 1021.34 1021.59 1021.80 1022.01 1022.22 1022.46 1022.70 1022.94 1023.14 1023.29 1023.36 1023.35 1023.28 1023.18 1023.09 1023.04 1023.06 1023.17 1023.33 1023.52 1023.70 1023.85 1023.94 1023.98 1023.99 1024.00 1024.04
1015.66 1015.99 1016.37 1016.76 1017.14 1017.49 1017.81 1018.10 1018.38 1018.66 1018.98 1019.34 1019.73 1020.13 1020.52 1020.88 1021.18 1021.44 1021.65 1021.84 1022.02 1022.21 1022.41 1022.60 1022.78 1022.90 1022.97 1022.97 1022.92 1022.86 1022.80 1022.78 1022.83 1022.95 1023.12 1023.31 1023.50 1023.65 1023.75 1023.80 1023.83 1023.85 1023.90
1015.40 1015.76 1016.14 1016.53 1016.89 1017.21 1017.50 1017.76 1018.01 1018.28 1018.59 1018.96 1019.36 1019.79 1020.21 1020.59 1020.92 1021.19 1021.40 1021.58 1021.74 1021.89 1022.05 1022.21 1022.35 1022.47 1022.54 1022.56 1022.54 1022.50 1022.48 1022.49 1022.55 1022.66 1022.83 1023.02 1023.20 1023.36 1023.47 1023.55 1023.59 1023.63 1023.69
1014.96 1015.36 1015.78 1016.19 1016.57 1016.89 1017.17 1017.41 1017.63 1017.88 1018.18 1018.53 1018.92 1019.35 1019.78 1020.18 1020.54 1020.82 1021.05 1021.23 1021.38 1021.52 1021.67 1021.81 1021.95 1022.06 1022.14 1022.19 1022.20 1022.19 1022.18 1022.20 1022.25 1022.35 1022.48 1022.65 1022.82 1022.97 1023.10 1023.20 1023.27 1023.34 1023.40
1014.35 1014.81 1015.29 1015.75 1016.16 1016.52 1016.80 1017.04 1017.25 1017.48 1017.74 1018.06 1018.43 1018.84 1019.26 1019.67 1020.04 1020.35 1020.60 1020.80 1020.98 1021.13 1021.29 1021.44 1021.59 1021.73 1021.84 1021.91 1021.95 1021.95 1021.94 1021.94 1021.95 1022.00 1022.09 1022.21 1022.35 1022.49 1022.63 1022.75 1022.85 1022.94 1023.02
1013.62 1014.13 1014.67 1015.19 1015.66 1016.06 1016.38 1016.63 1016.84 1017.04 1017.27 1017.55 1017.88 1018.26 1018.66 1019.07 1019.44 1019.78 1020.07 1020.31 1020.53 1020.72 1020.92 1021.11 1021.29 1021.47 1021.61 1021.71 1021.76 1021.77 1021.74 1021.70 1021.66 1021.64 1021.65 1021.71 1021.80 1021.92 1022.06 1022.19 1022.32 1022.44 1022.53
1012.83 1013.37 1013.95 1014.53 1015.05 1015.50 1015.86 1016.15 1016.37 1016.57 1016.77 1017.01 1017.30 1017.64 1018.01 1018.40 1018.79 1019.15 1019.47 1019.77 1020.03 1020.28 1020.53 1020.77 1021.00 1021.21 1021.39 1021.52 1021.59 1021.59 1021.54 1021.45 1021.34 1021.24 1021.18 1021.16 1021.19 1021.28 1021.40 1021.55 1021.70 1021.84 1021.95
1012.04 1012.58 1013.17 1013.78 1014.34 1014.84 1015.25 1015.58 1015.83 1016.03 1016.23 1016.45 1016.70 1017.00 1017.34 1017.71 1018.10 1018.47 1018.83 1019.17 1019.48 1019.79 1020.08 1020.37 1020.65 1020.90 1021.12 1021.27 1021.36 1021.36 1021.29 1021.16 1020.99 1020.82 1020.68 1020.58 1020.56 1020.60 1020.71 1020.86 1021.02 1021.18 1021.32
1011.30 1011.80 1012.36 1012.96 1013.54 1014.07 1014.52 1014.90 1015.19 1015.43 1015.64 1015.85 1016.08 1016.35 1016.67 1017.02 1017.40 1017.78 1018.16 1018.53 1018.88 1019.22 1019.55 1019.87 1020.19 1020.48 1020.72 1020.91 1021.02 1021.03 1020.96 1020.81 1020.61 1020.39 1020.18 1020.03 1019.95 1019.95 1020.03 1020.17 1020.34 1020.52 1020.67
1010.64 1011.06 1011.56 1012.11 1012.67 1013.21 1013.70 1014.12 1014.46 1014.74 1014.98 1015.21 1015.44 1015.70 1016.01 1016.34 1016.71 1017.09 1017.47 1017.85 1018.21 1018.57 1018.92 1019.26 1019.59 1019.90 1020.18 1020.40 1020.54 1020.59 1020.54 1020.41 1020.21 1019.97 1019.74 1019.54 1019.42 1019.38 1019.43 1019.54 1019.70 1019.88 1020.03
1010.06 1010.37 1010.78 1011.26 1011.78 1012.30 1012.80 1013.26 1013.65 1013.98 1014.27 1014.52 1014.78 1015.04 1015.34 1015.66 1016.02 1016.38 1016.76 1017.13 1017.49 1017.84 1018.19 1018.53 1018.86 1019.19 1019.49 1019.74 1019.93 1020.03 1020.04 1019.96 1019.80 1019.59 1019.37 1019.16 1019.01 1018.94 1018.94 1019.02 1019.15 1019.30 1019.45
1009.56 1009.76 1010.06 1010.44 1010.89 1011.38 1011.87 1012.34 1012.77 1013.15 1013.48 1013.77 1014.05 1014.33 1014.63 1014.95 1015.29 1015.65 1016.01 1016.37 1016.71 1017.05 1017.38 1017.70 1018.03 1018.36 1018.68 1018.97 1019.22 1019.40 1019.49 1019.49 1019.41 1019.26 1019.07 1018.88 1018.72 1018.61 1018.57 1018.60 1018.68 1018.79 1018.90
1009.12 1009.23 1009.42 1009.70 1010.07 1010.49 1010.95 1011.42 1011.86 1012.26 1012.61 1012.93 1013.23 1013.52 1013.83 1014.15 1014.49 1014.84 1015.20 1015.54 1015.88 1016.19 1016.50 1016.81 1017.13 1017.46 1017.80 1018.13 1018.44 1018.70 1018.88 1018.99 1019.00 1018.93 1018.81 1018.65 1018.50 1018.36 1018.28 1018.25 1018.26 1018.31 1018.38
1008.75 1008.78 1008.88 1009.07 1009.34 1009.68 1010.08 1010.50 1010.92 1011.31 1011.66 1011.98 1012.28 1012.58 1012.89 1013.21 1013.56 1013.92 1014.28 1014.62 1014.96 1015.27 1015.57 1015.87 1016.18 1016.51 1016.86 1017.23 1017.59 1017.93 1018.21 1018.41 1018.53 1018.55 1018.50 1018.39 1018.25 1018.11 1017.98 1017.89 1017.84 1017.82 1017.82
1008.45 1008.43 1008.45 1008.55 1008.72 1008.98 1009.29 1009.63 1009.98 1010.32 1010.63 1010.91 1011.19 1011.47 1011.77 1012.10 1012.45 1012.83 1013.21 1013.58 1013.93 1014.26 1014.57 1014.87 1015.18 1015.51 1015.88 1016.27 1016.67 1017.06 1017.42 1017.71 1017.92 1018.03 1018.05 1017.99 1017.88 1017.74 1017.59 1017.46 1017.34 1017.27 1017.21
Thickness
5720 5716 5712 5709 5707 5705 5704 5702 5701 5700 5699 5698 5697 5697 5696 5695 5695 5694 5694 5694 5694 5694 5694 5693 5693 5693 5693 5693 5693 5692 5692 5693 5693 5692 5692 5692 5692 5691 5690 5690 5689 5687 5686
5724 5717 5712 5709 5707 5705 5703 5701 5700 5698 5697 5697 5696 5695 5695 5694 5693 5693 5693 5692 5692 5692 5692 5691 5691 5690 5690 5690 5690 5690 5690 5690 5690 5690 5690 5689 5689 5688 5688 5687 5686 5685 5683
5723 5716 5712 5709 5706 5704 5702 5700 5698 5697 5696 5695 5695 5694 5693 5693 5692 5692 5691 5691 5690 5690 5690 5689 5689 5688 5688 5688 5688 5688 5688 5688 5689 5689 5688 5687 5686 5686 5685 5684 5683 5682 5680
5722 5716 5712 5708 5706 5703 5701 5699 5698 5696 5695 5694 5694 5693 5692 5691 5691 5690 5690 5689 5689 5688 5688 5687 5687 5686 5686 5686 5686 5686 5686 5687 5687 5687 5687 5685 5684 5683 5682 5681 5680 5679 5677
5721 5716 5711 5707 5705 5702 5700 5698 5697 5695 5694 5693 5692 5691 5691 5690 5689 5688 5688 5687 5687 5687 5686 5685 5685 5684 5684 5683 5683 5683 5684 5685 5685 5686 5685 5683 5682 5681 5679 5678 5677 5675 5674
5720 5715 5710 5707 5704 5702 5699 5697 5696 5694 5693 5692 5691 5690 5689 5689 5688 5687 5686 5686 5685 5685 5684 5684 5683 5682 5681 5681 5681 5681 5682 5683 5683 5683 5683 5681 5679 5678 5676 5675 5674 5672 5671
5719 5714 5708 5706 5703 5701 5699 5697 5695 5694 5692 5691 5690 5689 5688 5687 5686 5686 5685 5684 5684 5683 5683 5682 5681 5680 5679 5679 5679 5679 5680 5680 5681 5681 5680 5678 5677 5675 5674 5672 5671 5670 5668
5718 5713 5707 5704 5702 5700 5698 5696 5694 5693 5691 5690 5689 5688 5687 5686 5685 5684 5684 5683 5682 5682 5681 5680 5679 5678 5678 5677 5677 5677 5677 5678 5679 5679 5678 5676 5674 5673 5672 5670 5668 5667 5666
5717 5712 5707 5703 5701 5699 5697 5695 5693 5692 5690 5689 5688 5687 5686 5685 5684 5683 5682 5681 5681 5680 5679 5678 5678 5677 5676 5676 5675 5675 5675 5676 5676 5676 5676 5674 5672 5671 5669 5668 5666 5665 5663
5715 5711 5707 5704 5701 5698 5696 5694 5693 5691 5690 5688 5687 5686 5685 5684 5683 5682 5681 5680 5679 5678 5678 5677 5676 5675 5675 5674 5674 5673 5674 5674 5674 5674 5674 5672 5670 5669 5667 5666 5664 5662 5661
5712 5711 5708 5705 5702 5699 5697 5694 5692 5690 5689 5688 5686 5685 5684 5683 5683 5682 5681 5680 5679 5678 5676 5675 5675 5674 5673 5673 5672 5672 5672 5672 5673 5673 5672 5670 5669 5667 5666 5664 5663 5661 5659
5708 5709 5708 5706 5703 5700 5698 5694 5692 5690 5689 5688 5686 5685 5684 5684 5683 5682 5681 5679 5678 5677 5676 5674 5674 5673 5672 5672 5671 5671 5671 5671 5671 5671 5670 5669 5667 5666 5664 5663 5661 5660 5658
5709 5708 5708 5706 5703 5701 5698 5695 5693 5691 5690 5688 5687 5686 5685 5684 5683 5682 5680 5679 5677 5676 5675 5674 5673 5672 5672 5671 5671 5670 5670 5670 5670 5670 5669 5668 5666 5664 5663 5661 5660 5658 5657
5708 5708 5707 5706 5703 5701 5698 5696 5694 5693 5691 5690 5688 5687 5685 5684 5683 5682 5681 5679 5677 5676 5675 5674 5673 5672 5672 5671 5671 5670 5669 5669 5669 5668 5667 5666 5665 5663 5662 5660 5659 5658 5656
5707 5707 5706 5705 5703 5701 5698 5697 5695 5693 5692 5690 5689 5687 5686 5684 5683 5682 5681 5679 5678 5676 5675 5674 5673 5672 5671 5671 5670 5669 5669 5668 5667 5667 5666 5665 5664 5662 5661 5660 5658 5657 5655
5707 5707 5706 5704 5703 5701 5698 5696 5695 5693 5692 5690 5689 5687 5686 5684 5683 5682 5680 5679 5677 5676 5675 5673 5672 5671 5670 5669 5669 5668 5667 5667 5666 5665 5665 5664 5663 5662 5660 5659 5657 5656 5655
5707 5707 5705 5704 5702 5700 5698 5696 5695 5693 5692 5690 5689 5687 5685 5684 5683 5681 5680 5678 5677 5675 5673 5672 5670 5669 5668 5667 5667 5666 5666 5665 5664 5664 5663 5663 5662 5661 5660 5658 5656 5654 5653
5707 5706 5704 5703 5701 5699 5697 5696 5694 5693 5691 5690 5688 5687 5685 5683 5682 5680 5679 5677 5676 5674 5672 5670 5668 5667 5665 5664 5664 5664 5663 5663 5663 5662 5662 5661 5661 5660 5659 5657 5655 5653 5651
5707 5705 5702 5701 5699 5697 5696 5694 5693 5691 5690 5689 5687 5686 5684 5682 5681 5679 5677 5676 5674 5672 5670 5668 5666 5664 5662 5661 5661 5661 5661 5661 5661 5661 5660 5660 5659 5658 5657 5655 5653 5651 5649
5705 5703 5701 5699 5697 5695 5693 5691 5690 5689 5688 5687 5686 5685 5683 5681 5679 5677 5675 5674 5672 5670 5668 5666 5663 5661 5659 5658 5657 5657 5657 5658 5659 5659 5659 5658 5657 5656 5654 5652 5651 5648 5646
5700 5699 5698 5696 5694 5692 5690 5688 5686 5686 5686 5685 5685 5683 5682 5679 5677 5675 5673 5671 5669 5667 5665 5663 5660 5657 5655 5653 5650 5650 5654 5656 5658 5659 5658 5656 5655 5654 5651 5649 5647 5645 5643
5695 5694 5693 5693 5692 5690 5689 5688 5686 5684 5683 5683 5682 5681 5679 5677 5674 5672 5670 5668 5666 5664 5662 5659 5656 5653 5651 5648 5645 5643 5644 5650 5655 5657 5655 5653 5652 5650 5648 5646 5643 5641 5639
5687 5688 5689 5688 5688 5687 5685 5683 5681 5679 5678 5678 5678 5677 5675 5673 5671 5669 5667 5664 5662 5660 5658 5655 5653 5649 5646 5644 5642 5638 5636 5638 5644 5649 5650 5648 5646 5644 5642 5640 5638 5636 5634
5680 5682 5682 5682 5682 5681 5680 5678 5676 5675 5674 5675 5675 5673 5671 5669 5666 5664 5662 5660 5658 5655 5653 5651 5648 5645 5641 5639 5637 5635 5634 5633 5630 5634 5639 5640 5639 5637 5635 5634 5632 5630 5628
5672 5672 5673 5673 5674 5674 5674 5672 5670 5669 5670 5670 5669 5667 5666 5664 5661 5659 5656 5654 5652 5650 5648 5645 5643 5639 5637 5634 5631 5629 5627 5625 5623 5621 5625 5628 5628 5629 5628 5627 5626 5624 5621
5660 5661 5662 5662 5663 5665 5665 5665 5664 5663 5662 5661 5661 5660 5659 5658 5656 5653 5651 5648 5646 5644 5642 5639 5636 5633 5631 5628 5625 5623 5619 5617 5616 5614 5614 5617 5618 5620 5620 5619 5618 5616 5614